星链-4420 (STARLINK-4420 )

导读

STARLINK-4420是美国太空探索技术公司(SpaceX)于2022年8月31日发射的星链(Starlink)卫星,归属星链v1.5批次。它部署在近地轨道,轨道倾角约43度,轨道高度约559千米,为星链星座全球高速低延迟互联网覆盖提供网络支撑。该卫星配备星间激光通信设备,支持星间路由,可服务偏远地区宽带接入、应急通信等场景,服役后按计划通过自主变轨完成任务,退役后会再入大气层焚毁。

Basic Information
目录编号:
53654
目录名称:
STARLINK-4420
国际标识:
2022-105G
轨道中心:
EARTH
卫星名称:
星链-4420
卫星全名:
星链-4420 (STARLINK-4420 )
卫星状态:
在轨 (已飞行1465 天)
发射日期:
2022-08-31 UTC
国别 :
美国 (US)
星等 :
--
Orbit Information
数据来源 国际轨道数据
星历时间: 2026-09-04T10:26:38+0800
7小时前
查看轨道信息
半长轴: 6843.706km
偏心率: 0.000188
轨道倾角: 97.286°
近地点辐角 94.386°
升交点赤经 124.068°
平近点角 265.759°
近地点: 464.282km
远地点: 466.856km
周期: 93.907分钟
每日圈数: 15.334364
Detailed Information
固有亮度:
5
最大亮度:
2.5
卫星平台:
Starlink v1.5
覆盖范围:
全球
运营商:
太空探索技术公司
运营商所在国:
美国
制造商(研发单位):
太空探索技术公司
制造商所在国:
美国
使用方式:
暂无
Satellite Introduction
星链(Starlink)计划是由太空探索技术公司(SpaceX)提出的一个巨型低轨卫星互联网星座项目,计划在2019年至2024年间在太空搭建由约1.2万颗卫星组成的“星链”网络,其中1584颗将部署在地球上空550千米处的近地轨道,并从2020年开始工作。该卫星仍在工作。
2D Orbit Map
3D Orbit Map
Orbit Altitude Analysis Chart
Orbit Inclination Analysis Chart
Orbit Comprehensive Analysis Chart
View Comprehensive Chart
Conjunction Data List
Event ID Objects TCA Miss Dist (km) Collision Risk Probability Collision Risk Index (CRI) Action
CDM_260905-094205-365405-853421
2026-09-05T
09:42:26+0000
2.765 km
极远距离
1.486394E-6 低风险 0.38
CDM_260905-020204-829405-365421
2026-09-05T
02:02:10+0000
2.886 km
极远距离
1.397382E-6 低风险 0.38
CDM_260906-113904-829205-365421
2026-09-06T
11:39:26+0000
2.963 km
极远距离
1.355945E-6 低风险 0.38
CDM_260903-075004-843605-365421
2026-09-03T
07:50:24+0000
2.958 km
极远距离
9.788822E-7 极低风险 0.35